FW6482 Weather Reports


time (UTC)temp
F
wind
direction
speed
knots
gust
knots
rain 1hr
in
rain 24hr
in
rain mn
in
humidity
%
barometer
mb
20260504210054 56 277 0.0 0.0 0.00 0.17 0.17 92 1010.1
20260504204553 56 277 0.0 0.0 0.00 0.17 0.17 92 1010.2
20260504203050 56 277 0.0 1.7 0.00 0.17 0.17 92 1010.2
20260504201555 56 277 0.0 1.7 0.00 0.17 0.17 92 1010.2
20260504200053 56 277 0.0 0.0 0.00 0.17 0.17 92 1010.3
20260504194554 56 277 0.0 1.7 0.00 0.17 0.17 92 1010.2
20260504193049 57 277 0.0 0.0 0.00 0.17 0.17 91 1010.2
20260504191606 57 277 0.0 0.9 0.00 0.17 0.17 91 1010.0
20260504190059 57 277 0.0 0.9 0.00 0.17 0.17 91 1010.0
20260504184551 57 277 0.0 0.0 0.00 0.17 0.17 91 1009.9
20260504183046 57 277 0.0 0.9 0.00 0.17 0.17 90 1010.0
20260504181548 58 277 0.0 0.9 0.00 0.17 0.17 90 1010.1
20260504180045 58 277 0.0 1.7 0.01 0.17 0.17 90 1010.1
20260504174545 58 277 0.0 0.9 0.01 0.17 0.17 90 1010.1
20260504173051 58 277 0.0 1.7 0.02 0.17 0.17 89 1010.3
20260504171543 59 277 0.0 0.9 0.02 0.17 0.17 89 1010.3
20260504081557 66 159 0.9 6.1 0.00 0.00 0.00 62 1010.8
20260504044517 52 214 1.7 4.3 0.00 0.00 0.00 86 1009.8
20260504043018 52 214 0.9 2.6 0.00 0.00 0.00 86 1009.8
20260504041524 51 214 0.9 2.6 0.00 0.00 0.00 87 1009.7
20260504040012 51 214 1.7 3.5 0.00 0.00 0.00 86 1009.8
20260504034517 51 214 1.7 2.6 0.00 0.00 0.00 87 1009.8
20260504033013 51 214 0.9 2.6 0.00 0.00 0.00 87 1009.9
20260504031510 51 214 0.9 2.6 0.00 0.00 0.00 87 1009.9
20260504030010 51 214 1.7 3.5 0.00 0.00 0.00 87 1010.0
20260504024510 51 214 1.7 2.6 0.00 0.00 0.00 87 1010.0
20260504023009 51 214 1.7 3.5 0.00 0.00 0.00 87 1009.8
20260504021506 51 214 1.7 3.5 0.00 0.00 0.00 87 1010.0
20260504020005 51 214 2.6 3.5 0.00 0.00 0.00 86 1010.0
20260504014504 51 215 1.7 3.5 0.00 0.00 0.00 85 1009.9
20260504013004 52 215 1.7 3.5 0.00 0.00 0.00 85 1010.1
20260504003053 53 215 1.7 2.6 0.00 0.00 0.00 81 1009.9
20260504001553 53 215 0.9 1.7 0.00 0.00 0.00 81 1010.0
20260504000050 54 215 0.9 1.7 0.00 0.00 0.00 80 1010.1
20260503234602 54 215 0.9 1.7 0.00 0.01 0.00 79 1010.1
20260503233048 54 215 0.9 3.5 0.00 0.01 0.00 80 1010.0
20260503231541 55 215 1.7 5.2 0.00 0.01 0.00 79 1010.0
20260503230041 55 224 2.6 4.3 0.00 0.01 0.00 77 1010.0
20260503224537 56 225 1.7 4.3 0.00 0.01 0.00 76 1009.9
20260503223035 56 225 1.7 5.2 0.00 0.01 0.00 76 1009.9
20260503221535 56 247 3.5 6.1 0.00 0.01 0.00 75 1010.0
20260503220028 57 222 2.6 6.1 0.00 0.01 0.00 74 1010.1
20260503214525 57 203 3.5 7.0 0.00 0.01 0.01 73 1010.0
20260503213025 57 231 3.5 6.1 0.00 0.01 0.01 72 1010.1
20260503211525 58 248 1.7 3.5 0.00 0.01 0.01 70 1010.1